Weather History for Pine Ridge, SD

Change the Weather History Date:

Wednesday, February 6, 2013

  Actual Average Record
Temperature  
Mean Temperature 37 °F 25 °F  
Max Temperature 46 °F 38 °F 59 °F (1999)
Min Temperature 28 °F 12 °F -20 °F (2014)
Degree Days  
Heating Degree Days 28 40  
Month to date heating degree days 175 243  
Since 1 July heating degree days 4302 4520  
Cooling Degree Days 0 0  
Month to date cooling degree days 0 0  
Year to date cooling degree days 0 0  
Moisture  
Dew Point 28 °F    
Average Humidity 67    
Maximum Humidity 89    
Minimum Humidity 45    
Precipitation  
Precipitation T in 0.02 in 0.08 in (2011)
Month to date precipitation 0.01 0.11  
Year to date precipitation 0.74 0.43  
Sea Level Pressure  
Sea Level Pressure 29.90 in    
Wind  
Wind Speed 4 mph (NW)    
Max Wind Speed 13 mph    
Max Gust Speed 17 mph    
Visibility 10 miles    
Events      
T = Trace of Precipitation, MM = Missing Value Source: NWS Daily Summary

Daily Weather History Graph

Daily Weather History Graph

Search for Another Location

Airport:

Trip Planner

Search our weather history database for the weather conditions in past years. The results will help you decide how hot, cold, wet, or windy it might be!

Date:

Astronomy

Feb. 06, 2013 Rise Set
Actual Time 6:59 AM MST 5:09 PM MST
Civil Twilight 6:29 AM MST 5:39 PM MST
Nautical Twilight 5:55 AM MST 6:13 PM MST
Astronomical Twilight 5:22 AM MST 6:46 PM MST
Moon 3:47 AM MST (2/6) 1:27 PM MST (2/6)
Length of Visible Light 11h 10m
Length of Day
10h 10m
Waning Crescent, 16% of the Moon is Illuminated
Feb 6
Waning Crescent
Feb 10
New
Feb 17
First Quarter
Feb 25
Full
Mar 4
Last Quarter

Hourly Weather History & Observations

Time (MST) Temp. Windchill Dew Point Humidity Pressure Visibility Wind Dir Wind Speed Gust Speed Precip Events Conditions
12:52 AM 37.0 °F 29.3 °F 26.1 °F 65% 29.78 in 10.0 mi SSW 11.5 mph - N/A   Clear
1:52 AM 37.0 °F 34.5 °F 25.0 °F 62% 29.78 in 10.0 mi West 3.5 mph - N/A   Clear
2:52 AM 34.0 °F - 25.0 °F 70% 29.77 in 10.0 mi Calm Calm - N/A   Clear
3:52 AM 33.1 °F 30.0 °F 25.0 °F 72% 29.78 in 10.0 mi WSW 3.5 mph - N/A   Clear
4:52 AM 28.9 °F - 24.1 °F 82% 29.79 in 10.0 mi Calm Calm - N/A   Clear
6:52 AM 33.1 °F 26.9 °F 26.1 °F 75% 29.80 in 10.0 mi SW 6.9 mph - N/A   Clear
7:52 AM 34.0 °F 31.0 °F 26.1 °F 73% 29.82 in 10.0 mi West 3.5 mph - N/A   Clear
8:52 AM 36.0 °F - 28.0 °F 73% 29.82 in 10.0 mi Calm Calm - N/A   Clear
9:52 AM 41.0 °F - 27.0 °F 57% 29.83 in 10.0 mi Calm Calm - N/A   Clear
10:52 AM 42.1 °F 37.1 °F 26.1 °F 53% 29.87 in 10.0 mi West 8.1 mph - N/A   Clear
11:52 AM 44.1 °F 42.5 °F 27.0 °F 51% 29.85 in 10.0 mi Variable 3.5 mph - N/A   Clear
12:52 PM 46.0 °F 42.5 °F 27.0 °F 47% 29.85 in 10.0 mi NNE 6.9 mph - N/A   Clear
1:52 PM 44.1 °F 40.1 °F 28.9 °F 55% 29.86 in 10.0 mi NNE 6.9 mph - N/A   Clear
2:52 PM 44.1 °F 39.0 °F 30.0 °F 58% 29.89 in 10.0 mi NE 9.2 mph - N/A   Clear
3:52 PM 39.9 °F - 32.0 °F 73% 29.93 in 10.0 mi Calm Calm - N/A   Clear
4:52 PM 43.0 °F 41.3 °F 28.0 °F 56% 29.96 in 10.0 mi North 3.5 mph - N/A   Scattered Clouds
5:52 PM 39.0 °F - 28.0 °F 65% 30.00 in 10.0 mi Calm Calm - N/A   Overcast
6:52 PM 41.0 °F 35.8 °F 27.0 °F 57% 30.03 in 10.0 mi North 8.1 mph - N/A   Overcast
7:52 PM 39.0 °F 35.7 °F 30.0 °F 70% 30.05 in 10.0 mi NE 4.6 mph - 0.00 in   Overcast
8:52 PM 36.0 °F - 30.9 °F 82% 30.06 in 10.0 mi Calm Calm - 0.00 in   Overcast
9:52 PM 34.0 °F - 30.0 °F 85% 30.06 in 10.0 mi Calm Calm - N/A   Overcast
10:52 PM 32.0 °F - 28.9 °F 88% 30.05 in 10.0 mi Calm Calm - N/A   Clear
11:52 PM 30.0 °F 24.1 °F 28.0 °F 92% 30.10 in 10.0 mi WSW 5.8 mph - N/A   Clear